Location: Newark
(41.6500°N, 71.4833°W)
Time: 02:40:58
(UTC+00:00)

Vanguard 1 - Visible Passes

Search period start: 26 January 2020 00:00
Search period end: 05 February 2020 00:00
Orbit: 651 x 3833 km, 34.2° (Epoch: 25 January)

Date Brightness Start Highest point End Pass type
(mag) Time Alt. Az. Time Alt. Az. Time Alt. Az.
26 Jan 10.7 00:16:16 10° WSW 00:20:47 37° S 00:21:31 36° SSE visible
26 Jan 10.5 22:17:59 10° WSW 22:21:59 34° S 22:26:41 10° ESE visible
27 Jan 11.0 00:37:10 10° WSW 00:41:26 32° SSW 00:41:26 32° SSW visible
27 Jan 10.5 22:38:44 10° WSW 22:42:47 35° S 22:47:39 10° ESE visible
28 Jan 11.4 00:58:10 10° WSW 01:01:22 25° SSW 01:01:22 25° SSW visible
28 Jan 10.6 22:59:33 10° WSW 23:03:35 34° S 23:08:33 10° ESE visible
29 Jan 11.9 01:19:22 10° WSW 01:21:21 18° SW 01:21:21 18° SW visible
29 Jan 10.8 23:20:27 10° WSW 23:24:24 31° S 23:28:39 13° SE visible
30 Jan 12.4 01:40:58 10° WSW 01:41:23 11° SW 01:41:23 11° SW visible
30 Jan 11.1 23:41:26 10° WSW 23:45:13 26° SSW 23:48:42 15° SE visible
01 Feb 11.4 00:02:35 10° WSW 00:06:03 20° SSW 00:08:48 15° SSE visible
02 Feb 11.8 00:24:05 10° SW 00:26:53 15° SSW 00:28:58 13° S visible
02 Feb 11.0 22:24:17 10° WSW 22:28:05 27° SSW 22:32:05 10° SE visible
03 Feb 12.2 00:46:56 10° SSW 00:47:44 10° SSW 00:48:34 10° SSW visible
03 Feb 11.3 22:45:24 10° WSW 22:48:51 22° SSW 22:52:31 10° SE visible
04 Feb 11.7 23:06:45 10° WSW 23:09:35 16° SSW 23:12:36 10° SSE visible
